| time (UTC) | temp C | wind direction | speed KPH | gust KPH | rain 1hr cm | rain 24hr cm | rain mn cm | humidity % | barometer mb |
| 20260507070519 | 16 | 246 | 12.9 | 27.4 | 0.00 | 0.00 | 0.00 | 56 | 1013.1 |
| 20260507065520 | 15 | 252 | 19.3 | 33.8 | 0.00 | 0.00 | 0.00 | 57 | 1013.2 |
| 20260507064520 | 15 | 252 | 19.3 | 33.8 | 0.00 | 0.00 | 0.00 | 59 | 1013.2 |
| 20260507063539 | 15 | 254 | 16.1 | 35.4 | 0.00 | 0.00 | 0.00 | 61 | 1013.2 |
| 20260507062520 | 14 | 243 | 11.3 | 25.7 | 0.00 | 0.00 | 0.00 | 63 | 1013.2 |
| 20260507061542 | 13 | 252 | 12.9 | 24.1 | 0.00 | 0.00 | 0.00 | 63 | 1013.1 |
| 20260507060519 | 13 | 250 | 14.5 | 25.7 | 0.00 | 0.00 | 0.00 | 64 | 1013.0 |
| 20260507055539 | 14 | 251 | 12.9 | 24.1 | 0.00 | 0.00 | 0.00 | 64 | 1012.9 |
| 20260507054520 | 14 | 250 | 17.7 | 25.7 | 0.00 | 0.00 | 0.00 | 63 | 1013.0 |
| 20260507053539 | 13 | 247 | 9.7 | 20.9 | 0.00 | 0.00 | 0.00 | 64 | 1012.9 |
| 20260507052519 | 13 | 246 | 6.4 | 12.9 | 0.00 | 0.00 | 0.00 | 65 | 1012.9 |
| 20260507051523 | 13 | 249 | 9.7 | 20.9 | 0.00 | 0.00 | 0.00 | 65 | 1012.7 |
| 20260507050519 | 13 | 240 | 11.3 | 17.7 | 0.00 | 0.00 | 0.00 | 66 | 1012.7 |
| 20260507045520 | 13 | 247 | 8.0 | 17.7 | 0.00 | 0.00 | 0.00 | 66 | 1012.5 |
| 20260507044518 | 13 | 238 | 6.4 | 14.5 | 0.00 | 0.00 | 0.00 | 66 | 1012.5 |
| 20260507043519 | 13 | 248 | 9.7 | 20.9 | 0.00 | 0.00 | 0.00 | 66 | 1012.3 |
| 20260507042520 | 13 | 245 | 8.0 | 16.1 | 0.00 | 0.00 | 0.00 | 66 | 1012.2 |
| 20260507041519 | 13 | 246 | 9.7 | 17.7 | 0.00 | 0.00 | 0.00 | 65 | 1012.0 |
| 20260507040521 | 13 | 246 | 8.0 | 17.7 | 0.00 | 0.00 | 0.00 | 65 | 1012.0 |
| 20260507035521 | 13 | 239 | 8.0 | 14.5 | 0.00 | 0.00 | 0.00 | 65 | 1011.8 |
| 20260507034519 | 13 | 248 | 11.3 | 25.7 | 0.00 | 0.00 | 0.00 | 64 | 1011.8 |
| 20260507033521 | 13 | 252 | 11.3 | 20.9 | 0.00 | 0.00 | 0.00 | 64 | 1011.6 |
| 20260507032521 | 13 | 253 | 16.1 | 25.7 | 0.00 | 0.00 | 0.00 | 64 | 1011.5 |
| 20260507031518 | 13 | 258 | 16.1 | 29.0 | 0.00 | 0.00 | 0.00 | 65 | 1011.5 |
| 20260507030521 | 13 | 249 | 12.9 | 24.1 | 0.00 | 0.00 | 0.00 | 64 | 1011.3 |
| 20260507030022 | 13 | 241 | 12.9 | 27.4 | 0.00 | 0.00 | 0.00 | 64 | 1011.3 |
| 20260507025018 | 14 | 242 | 11.3 | 25.7 | 0.00 | 0.00 | 0.00 | 64 | 1011.2 |
| 20260507024019 | 14 | 230 | 9.7 | 17.7 | 0.00 | 0.00 | 0.00 | 63 | 1011.0 |
| 20260507023020 | 14 | 230 | 11.3 | 35.4 | 0.00 | 0.00 | 0.00 | 63 | 1011.1 |
| 20260507022017 | 14 | 241 | 8.0 | 17.7 | 0.00 | 0.00 | 0.00 | 64 | 1011.0 |
| 20260507021039 | 14 | 232 | 11.3 | 29.0 | 0.00 | 0.00 | 0.00 | 64 | 1010.9 |
| 20260507020106 | 14 | 239 | 9.7 | 27.4 | 0.00 | 0.00 | 0.00 | 65 | 1010.8 |
| 20260507015017 | 14 | 220 | 8.0 | 20.9 | 0.00 | 0.00 | 0.00 | 65 | 1010.8 |
| 20260507014019 | 14 | 231 | 9.7 | 22.5 | 0.00 | 0.00 | 0.00 | 65 | 1010.9 |
| 20260507013023 | 14 | 216 | 6.4 | 14.5 | 0.00 | 0.00 | 0.00 | 66 | 1010.7 |
| 20260507012017 | 14 | 213 | 9.7 | 22.5 | 0.00 | 0.00 | 0.00 | 67 | 1010.5 |
| 20260507011020 | 15 | 222 | 8.0 | 22.5 | 0.00 | 0.00 | 0.00 | 67 | 1010.4 |
| 20260507010017 | 15 | 235 | 8.0 | 20.9 | 0.00 | 0.00 | 0.00 | 67 | 1010.2 |
| 20260507005019 | 15 | 228 | 8.0 | 17.7 | 0.00 | 0.00 | 0.00 | 67 | 1010.3 |
| 20260507004021 | 15 | 241 | 12.9 | 24.1 | 0.00 | 0.00 | 0.00 | 66 | 1010.2 |
| 20260507003022 | 15 | 248 | 11.3 | 24.1 | 0.00 | 0.00 | 0.00 | 66 | 1010.3 |
| 20260507002020 | 15 | 233 | 8.0 | 17.7 | 0.00 | 0.00 | 0.00 | 66 | 1010.2 |
| 20260507001020 | 15 | 223 | 11.3 | 29.0 | 0.00 | 0.00 | 0.00 | 66 | 1009.9 |
| 20260507000016 | 15 | 242 | 11.3 | 27.4 | 0.00 | 0.00 | 0.00 | 67 | 1009.8 |
| 20260506235018 | 15 | 244 | 11.3 | 25.7 | 0.00 | 0.00 | 0.00 | 66 | 1009.6 |
| 20260506234042 | 15 | 237 | 11.3 | 25.7 | 0.00 | 0.00 | 0.00 | 66 | 1009.5 |
| 20260506233016 | 16 | 233 | 9.7 | 20.9 | 0.00 | 0.00 | 0.00 | 66 | 1009.6 |
| 20260506232018 | 16 | 240 | 8.0 | 17.7 | 0.00 | 0.00 | 0.00 | 67 | 1009.5 |
| 20260506231021 | 16 | 242 | 11.3 | 22.5 | 0.00 | 0.00 | 0.00 | 67 | 1009.1 |
| 20260506230017 | 16 | 248 | 17.7 | 38.6 | 0.00 | 0.00 | 0.00 | 67 | 1009.1 |
| 20260506225019 | 16 | 236 | 17.7 | 33.8 | 0.00 | 0.00 | 0.00 | 67 | 1008.7 |
| 20260506224021 | 16 | 245 | 22.5 | 48.3 | 0.00 | 0.00 | 0.00 | 67 | 1008.6 |
| 20260506223018 | 16 | 248 | 14.5 | 29.0 | 0.00 | 0.00 | 0.00 | 64 | 1008.7 |
| 20260506222021 | 16 | 256 | 16.1 | 30.6 | 0.00 | 0.00 | 0.00 | 62 | 1008.3 |
| 20260506221016 | 17 | 248 | 20.9 | 35.4 | 0.00 | 0.00 | 0.00 | 62 | 1007.9 |
| 20260506220020 | 17 | 243 | 14.5 | 37.0 | 0.00 | 0.00 | 0.00 | 60 | 1007.7 |
| 20260506215021 | 17 | 224 | 9.7 | 20.9 | 0.00 | 0.00 | 0.00 | 58 | 1007.4 |
| 20260506214017 | 17 | 223 | 9.7 | 30.6 | 0.00 | 0.00 | 0.00 | 57 | 1007.2 |
| 20260506213020 | 18 | 226 | 8.0 | 17.7 | 0.00 | 0.00 | 0.00 | 55 | 1007.0 |
| 20260506212020 | 18 | 227 | 9.7 | 24.1 | 0.00 | 0.00 | 0.00 | 51 | 1006.8 |
| 20260506211018 | 18 | 228 | 6.4 | 17.7 | 0.00 | 0.00 | 0.00 | 52 | 1006.5 |
| 20260506210019 | 18 | 205 | 4.8 | 11.3 | 0.00 | 0.00 | 0.00 | 52 | 1006.2 |
| 20260506205020 | 18 | 197 | 4.8 | 14.5 | 0.00 | 0.00 | 0.00 | 52 | 1006.1 |
| 20260506204018 | 18 | 194 | 3.2 | 6.4 | 0.00 | 0.00 | 0.00 | 51 | 1005.9 |
| 20260506203019 | 18 | 195 | 1.6 | 4.8 | 0.00 | 0.00 | 0.00 | 51 | 1005.8 |
| 20260506202043 | 18 | 194 | 4.8 | 11.3 | 0.00 | 0.00 | 0.00 | 51 | 1005.6 |
| 20260506201019 | 18 | 200 | 3.2 | 6.4 | 0.00 | 0.00 | 0.00 | 50 | 1005.5 |
| 20260506200019 | 19 | 197 | 3.2 | 6.4 | 0.00 | 0.00 | 0.00 | 51 | 1005.4 |
| 20260506195016 | 19 | 171 | 1.6 | 9.7 | 0.00 | 0.00 | 0.00 | 50 | 1005.3 |
| 20260506194018 | 20 | 179 | 3.2 | 6.4 | 0.00 | 0.00 | 0.00 | 49 | 1005.2 |
| 20260506193040 | 20 | 196 | 3.2 | 6.4 | 0.00 | 0.00 | 0.00 | 48 | 1005.0 |
| 20260506192057 | 20 | 160 | 6.4 | 14.5 | 0.00 | 0.00 | 0.00 | 47 | 1004.8 |
| 20260506191020 | 20 | 165 | 3.2 | 6.4 | 0.00 | 0.00 | 0.00 | 46 | 1004.7 |
| 20260506190021 | 21 | 144 | 4.8 | 14.5 | 0.00 | 0.00 | 0.00 | 45 | 1004.5 |
| 20260506185017 | 21 | 173 | 3.2 | 4.8 | 0.00 | 0.00 | 0.00 | 44 | 1004.5 |
| 20260506184021 | 21 | 169 | 6.4 | 14.5 | 0.00 | 0.00 | 0.00 | 44 | 1004.4 |
| 20260506183021 | 21 | 177 | 6.4 | 17.7 | 0.00 | 0.00 | 0.00 | 44 | 1004.2 |
| 20260506182018 | 21 | 162 | 6.4 | 14.5 | 0.00 | 0.00 | 0.00 | 43 | 1004.0 |
| 20260506181020 | 22 | 172 | 8.0 | 17.7 | 0.00 | 0.00 | 0.00 | 43 | 1004.0 |
| 20260506180022 | 22 | 167 | 8.0 | 16.1 | 0.00 | 0.00 | 0.00 | 42 | 1003.9 |
| 20260506175018 | 22 | 172 | 9.7 | 20.9 | 0.00 | 0.00 | 0.00 | 41 | 1003.7 |
| 20260506174019 | 22 | 175 | 11.3 | 25.7 | 0.00 | 0.00 | 0.00 | 41 | 1003.8 |
| 20260506173021 | 23 | 159 | 8.0 | 16.1 | 0.00 | 0.00 | 0.00 | 41 | 1003.7 |
| 20260506172019 | 23 | 168 | 9.7 | 24.1 | 0.00 | 0.00 | 0.00 | 41 | 1003.9 |
| 20260506171041 | 23 | 162 | 9.7 | 20.9 | 0.00 | 0.00 | 0.00 | 41 | 1003.8 |
| 20260506170021 | 23 | 154 | 6.4 | 16.1 | 0.00 | 0.00 | 0.00 | 40 | 1003.9 |
| 20260506165018 | 23 | 157 | 9.7 | 17.7 | 0.00 | 0.00 | 0.00 | 40 | 1003.9 |
| 20260506164041 | 23 | 173 | 6.4 | 17.7 | 0.00 | 0.00 | 0.00 | 40 | 1004.0 |
| 20260506163021 | 23 | 139 | 6.4 | 20.9 | 0.00 | 0.00 | 0.00 | 39 | 1004.0 |
| 20260506162043 | 24 | 153 | 8.0 | 20.9 | 0.00 | 0.00 | 0.00 | 39 | 1004.0 |
| 20260506161039 | 25 | 135 | 9.7 | 24.1 | 0.00 | 0.00 | 0.00 | 38 | 1004.0 |
| 20260506160021 | 25 | 160 | 8.0 | 16.1 | 0.00 | 0.00 | 0.00 | 37 | 1004.2 |
| 20260506155019 | 25 | 192 | 6.4 | 12.9 | 0.00 | 0.00 | 0.00 | 31 | 1004.2 |
| 20260506154016 | 26 | 204 | 6.4 | 17.7 | 0.00 | 0.00 | 0.00 | 31 | 1004.1 |
| 20260506153017 | 26 | 215 | 6.4 | 20.9 | 0.00 | 0.00 | 0.00 | 31 | 1004.1 |
| 20260506152019 | 26 | 219 | 6.4 | 14.5 | 0.00 | 0.00 | 0.00 | 31 | 1004.1 |
| 20260506151018 | 26 | 214 | 9.7 | 24.1 | 0.00 | 0.00 | 0.00 | 30 | 1004.2 |
| 20260506150046 | 27 | 202 | 8.0 | 22.5 | 0.00 | 0.00 | 0.00 | 29 | 1004.3 |
| 20260506145023 | 27 | 228 | 6.4 | 14.5 | 0.00 | 0.00 | 0.00 | 28 | 1004.1 |
| 20260506144021 | 27 | 212 | 8.0 | 22.5 | 0.00 | 0.00 | 0.00 | 28 | 1004.4 |
| 20260506143016 | 27 | 183 | 8.0 | 16.1 | 0.00 | 0.00 | 0.00 | 30 | 1004.3 |
| 20260506142021 | 27 | 164 | 9.7 | 27.4 | 0.00 | 0.00 | 0.00 | 31 | 1004.3 |
| 20260506141017 | 27 | 126 | 8.0 | 24.1 | 0.00 | 0.00 | 0.00 | 31 | 1004.3 |
| 20260506140022 | 27 | 123 | 8.0 | 22.5 | 0.00 | 0.00 | 0.00 | 31 | 1004.3 |
| 20260506135022 | 27 | 76 | 8.0 | 22.5 | 0.00 | 0.00 | 0.00 | 31 | 1004.5 |
| 20260506134020 | 27 | 107 | 8.0 | 17.7 | 0.00 | 0.00 | 0.00 | 30 | 1004.6 |
| 20260506133022 | 27 | 105 | 4.8 | 14.5 | 0.00 | 0.00 | 0.00 | 31 | 1004.7 |
| 20260506132022 | 27 | 97 | 11.3 | 29.0 | 0.00 | 0.00 | 0.00 | 31 | 1004.6 |
| 20260506131017 | 26 | 94 | 9.7 | 24.1 | 0.00 | 0.00 | 0.00 | 32 | 1004.8 |
| 20260506130042 | 26 | 91 | 12.9 | 24.1 | 0.00 | 0.00 | 0.00 | 32 | 1005.1 |
| 20260506125019 | 25 | 94 | 11.3 | 25.7 | 0.00 | 0.00 | 0.00 | 34 | 1005.4 |
| 20260506124021 | 25 | 84 | 9.7 | 30.6 | 0.00 | 0.00 | 0.00 | 34 | 1005.6 |
| 20260506123020 | 26 | 83 | 16.1 | 33.8 | 0.00 | 0.00 | 0.00 | 34 | 1005.8 |
| 20260506122021 | 26 | 81 | 19.3 | 35.4 | 0.00 | 0.00 | 0.00 | 34 | 1005.6 |
| 20260506121019 | 26 | 91 | 17.7 | 33.8 | 0.00 | 0.00 | 0.00 | 35 | 1005.9 |
| 20260506120017 | 25 | 100 | 17.7 | 35.4 | 0.00 | 0.00 | 0.00 | 36 | 1006.0 |
| 20260506115020 | 25 | 95 | 16.1 | 29.0 | 0.00 | 0.00 | 0.00 | 35 | 1006.1 |
| 20260506114019 | 25 | 97 | 9.7 | 20.9 | 0.00 | 0.00 | 0.00 | 35 | 1006.3 |
| 20260506113020 | 25 | 91 | 11.3 | 24.1 | 0.00 | 0.00 | 0.00 | 36 | 1006.6 |
| 20260506112017 | 25 | 91 | 19.3 | 40.2 | 0.00 | 0.00 | 0.00 | 36 | 1006.5 |
| 20260506111020 | 25 | 95 | 11.3 | 33.8 | 0.00 | 0.00 | 0.00 | 37 | 1006.9 |
| 20260506110018 | 25 | 87 | 14.5 | 27.4 | 0.00 | 0.00 | 0.00 | 38 | 1006.9 |
| 20260506105022 | 25 | 88 | 17.7 | 35.4 | 0.00 | 0.00 | 0.00 | 38 | 1007.0 |
| 20260506104019 | 25 | 102 | 12.9 | 27.4 | 0.00 | 0.00 | 0.00 | 37 | 1007.4 |
| 20260506103022 | 25 | 98 | 9.7 | 25.7 | 0.00 | 0.00 | 0.00 | 37 | 1007.4 |
| 20260506102023 | 25 | 84 | 12.9 | 29.0 | 0.00 | 0.00 | 0.00 | 36 | 1007.4 |
| 20260506101021 | 25 | 120 | 9.7 | 24.1 | 0.00 | 0.00 | 0.00 | 35 | 1007.5 |
| 20260506100019 | 25 | 83 | 14.5 | 29.0 | 0.00 | 0.00 | 0.00 | 37 | 1007.7 |
| 20260506095016 | 24 | 102 | 6.4 | 24.1 | 0.00 | 0.00 | 0.00 | 38 | 1007.9 |
| 20260506094019 | 25 | 90 | 9.7 | 20.9 | 0.00 | 0.00 | 0.00 | 37 | 1008.0 |
| 20260506093019 | 25 | 83 | 9.7 | 20.9 | 0.00 | 0.00 | 0.00 | 38 | 1008.2 |
| 20260506092019 | 23 | 87 | 14.5 | 33.8 | 0.00 | 0.00 | 0.00 | 39 | 1008.2 |
| 20260506091039 | 23 | 88 | 6.4 | 17.7 | 0.00 | 0.00 | 0.00 | 40 | 1008.4 |
| 20260506090021 | 23 | 69 | 8.0 | 16.1 | 0.00 | 0.00 | 0.00 | 42 | 1008.5 |
| 20260506085039 | 22 | 53 | 4.8 | 11.3 | 0.00 | 0.00 | 0.00 | 42 | 1008.6 |
| 20260506084102 | 22 | 59 | 6.4 | 16.1 | 0.00 | 0.00 | 0.00 | 43 | 1008.6 |
| 20260506083017 | 22 | 77 | 6.4 | 17.7 | 0.00 | 0.00 | 0.00 | 43 | 1008.7 |
| 20260506082020 | 22 | 105 | 4.8 | 9.7 | 0.00 | 0.00 | 0.00 | 42 | 1008.8 |
| 20260506081039 | 22 | 353 | 3.2 | 11.3 | 0.00 | 0.00 | 0.00 | 46 | 1009.0 |
| 20260506073020 | 21 | 320 | 1.6 | 6.4 | 0.00 | 0.00 | 0.00 | 50 | 1009.2 |
| 20260506072021 | 20 | 249 | 3.2 | 6.4 | 0.00 | 0.00 | 0.00 | 51 | 1009.3 |
| 20260506071019 | 20 | 259 | 3.2 | 9.7 | 0.00 | 0.00 | 0.00 | 52 | 1009.4 |